Wind_Speed
25 26 27 27 27 28 28 28 28 29 30 30 29 30 30 32 33 34 34 34 35 36 36 36 37 39 40 40 41 43 43 44 44 44 43 43 42 42 42 41 42 41 42 42
26 27 27 27 28 29 29 29 29 30 30 30 29 29 29 30 32 31 32 32 33 33 34 34 35 37 40 40 40 41 42 43 43 44 44 43 42 43 42 41 42 42 42 42
27 27 27 27 28 29 29 30 30 30 30 30 30 29 28 29 30 31 31 31 31 32 33 33 34 36 38 40 40 40 42 42 42 44 44 43 43 44 44 43 41 42 42 42
27 27 27 28 29 29 29 29 30 30 30 31 30 31 28 28 29 30 30 30 31 32 33 33 34 35 37 39 40 40 41 41 42 43 44 44 44 44 44 43 43 43 43 43
27 27 28 28 29 29 30 30 30 30 30 31 30 31 29 27 28 28 29 29 30 31 32 33 33 35 37 38 39 41 42 42 41 42 43 43 44 44 45 44 44 44 44 44
28 28 29 29 29 30 30 29 30 30 31 31 30 31 29 27 28 28 28 28 28 29 30 31 33 34 35 37 38 40 41 41 41 43 43 43 44 45 46 46 45 45 45 45
28 28 29 30 30 29 29 29 30 31 32 32 31 31 29 28 28 28 28 27 28 29 29 31 32 33 34 36 36 38 40 41 41 41 43 43 44 45 46 46 46 45 45 46
30 29 29 30 30 30 30 30 30 31 33 33 32 31 29 28 28 28 28 28 28 28 27 29 31 33 34 35 36 36 38 40 41 41 42 43 44 45 45 45 45 46 45 45
31 31 30 30 30 30 30 30 31 32 34 34 33 32 29 28 28 28 28 29 28 28 28 29 31 32 33 34 36 36 38 40 41 41 42 43 44 45 46 46 46 46 45 46
32 32 31 31 31 30 31 32 32 31 33 35 34 31 29 28 28 28 28 28 28 29 29 29 30 31 32 34 35 36 36 38 41 42 42 42 44 45 46 46 46 46 45 46
33 33 32 31 30 30 30 31 31 31 32 34 36 32 30 29 28 28 28 28 27 28 29 28 28 30 32 33 35 36 37 38 39 40 41 42 42 44 44 45 46 46 46 46
34 35 34 32 31 31 31 31 31 31 33 34 35 33 29 28 29 29 29 29 29 29 29 28 28 28 30 31 33 35 37 38 39 39 41 43 42 42 43 43 44 45 45 46
35 35 35 34 33 32 33 32 31 32 34 34 35 32 31 29 29 29 29 29 29 29 29 28 28 28 28 29 31 34 36 37 38 38 39 41 42 42 42 43 43 43 44 46
36 35 35 35 34 34 33 33 32 33 35 35 34 33 30 30 30 29 29 29 29 29 29 29 29 28 28 29 30 33 35 36 37 37 38 39 40 42 42 42 42 44 44 44
37 36 35 34 34 34 34 34 33 34 34 35 34 33 31 30 30 30 29 29 28 29 29 29 29 29 29 29 30 31 33 35 36 36 36 37 39 41 43 43 42 42 42 44
37 37 36 35 35 35 35 34 34 34 34 34 34 33 32 31 30 29 28 28 28 28 27 28 29 31 30 30 29 30 32 34 35 37 37 37 38 40 42 43 43 44 44 44
37 37 37 36 36 36 36 34 34 34 34 34 34 32 31 31 30 29 29 28 28 27 27 27 28 29 30 30 30 29 30 32 34 35 36 37 38 39 40 42 44 44 44 45
37 37 37 37 37 37 36 34 34 34 33 33 32 31 31 31 30 29 29 29 28 28 28 28 28 29 29 30 30 30 30 31 32 33 35 37 38 38 40 42 44 43 43 44
37 37 38 38 38 37 35 34 34 33 33 32 31 30 29 30 29 29 29 29 30 29 29 29 30 30 30 31 31 32 32 32 33 33 34 36 37 38 40 41 43 43 43 43
37 37 37 38 38 38 35 34 33 33 32 31 31 30 30 29 29 28 28 29 29 30 30 30 31 31 31 32 32 32 33 33 33 33 34 35 37 38 39 40 41 42 42 42
37 37 36 36 37 36 34 33 32 32 32 31 31 30 29 29 29 29 28 28 29 29 30 30 31 31 32 32 32 32 32 33 33 33 34 35 36 37 38 38 39 40 40 41
37 36 36 36 35 34 32 32 32 31 31 31 30 30 30 29 29 29 29 29 29 29 29 30 30 30 31 32 32 32 32 32 33 33 34 35 36 36 37 37 38 38 39 41
35 35 35 34 33 32 32 32 31 31 31 31 31 30 30 29 29 29 29 30 30 30 30 30 29 29 30 30 31 31 32 32 33 34 34 34 35 36 36 37 37 38 39 40
34 34 34 33 31 31 31 31 31 31 31 31 31 30 30 30 29 29 29 30 30 30 30 30 30 29 30 30 30 31 31 32 32 33 34 35 35 36 37 37 37 37 38 40
34 34 33 32 31 31 31 31 31 31 32 31 31 31 31 30 30 30 30 30 30 30 30 30 30 30 30 30 30 31 31 32 33 33 34 35 35 35 36 37 37 37 38 38
32 32 33 33 32 32 31 32 31 31 31 31 31 31 31 31 30 30 30 30 30 30 30 30 30 30 30 30 30 31 31 32 33 33 33 34 34 34 34 35 35 36 37 38
Wind_Direction
306 304 303 303 303 300 298 295 293 291 290 290 288 287 285 283 282 281 278 275 272 266 264 261 258 253 249 249 248 247 246 244 243 242 241 242 242 242 242 243 243 245 246 246
306 305 304 304 303 302 299 297 295 292 291 292 291 289 287 285 284 283 282 278 273 267 266 263 257 253 249 248 248 246 246 244 243 241 240 241 242 242 243 243 243 244 245 246
306 306 306 306 305 303 300 300 298 295 294 293 294 292 290 287 286 285 283 279 275 268 266 265 259 252 249 249 248 245 244 244 243 242 240 241 241 242 242 244 244 245 245 244
307 306 306 306 306 305 303 300 299 298 297 295 297 296 293 290 287 286 284 281 278 271 267 265 261 253 250 249 247 246 244 243 242 242 241 242 242 241 242 244 245 246 246 245
307 305 305 306 306 305 305 303 300 300 300 299 299 298 297 292 289 288 286 283 281 275 270 265 261 257 252 249 247 245 243 242 241 240 240 241 241 241 243 244 245 247 247 245
306 305 305 306 307 307 305 305 301 300 301 301 301 300 301 296 293 291 288 285 284 279 272 266 263 258 253 250 248 244 242 241 241 241 240 241 241 241 243 243 245 246 247 246
306 305 305 306 306 306 305 305 305 304 303 303 303 302 304 300 296 293 291 288 286 281 275 267 261 258 254 251 248 244 242 241 242 241 241 242 241 242 242 243 244 245 246 247
305 305 305 306 307 307 306 307 306 305 306 305 305 304 303 301 298 294 292 290 287 282 276 269 264 259 255 253 250 248 245 243 243 243 243 243 243 242 241 243 243 244 245 246
304 304 304 304 305 307 308 306 306 304 305 305 305 305 302 300 297 296 293 292 287 281 275 271 265 260 256 254 253 252 247 245 244 244 245 244 244 243 242 243 244 244 245 246
303 302 303 303 303 304 306 306 305 304 305 305 306 306 306 302 300 297 296 294 290 285 278 273 268 263 261 260 257 253 250 248 246 245 246 246 244 244 244 244 245 245 245 246
302 302 303 302 302 304 305 305 304 302 301 303 305 306 306 304 299 297 297 297 294 291 285 277 269 267 266 264 260 256 253 252 250 248 247 247 246 244 244 244 245 246 246 246
303 302 302 301 300 301 302 303 303 302 300 300 302 306 305 302 297 295 295 295 294 293 287 279 273 271 267 265 262 258 255 254 252 251 249 247 247 244 243 243 244 245 246 247
302 302 301 300 300 300 301 302 301 300 298 298 299 303 302 300 295 292 292 292 292 292 287 279 275 274 273 270 265 260 258 257 256 254 252 251 250 248 245 245 246 247 248 249
300 301 300 300 300 300 300 300 299 298 298 298 300 300 298 297 294 291 290 291 289 289 286 281 278 277 276 274 271 266 262 259 258 256 254 253 252 249 247 247 248 248 249 249
299 299 298 299 299 298 298 299 298 298 298 299 300 298 297 294 294 292 289 290 291 288 284 280 278 277 278 278 276 271 264 260 258 255 255 256 254 252 250 248 249 249 249 249
297 298 297 297 297 297 297 298 298 297 297 297 297 297 295 292 292 291 289 289 291 290 286 282 280 277 277 279 279 276 269 264 260 258 258 258 257 254 252 250 250 250 250 249
297 298 298 298 296 296 297 299 298 298 298 298 297 297 294 290 289 289 287 288 289 289 286 283 281 279 277 277 277 276 273 268 264 262 260 260 259 258 256 254 252 253 252 251
298 298 298 298 297 296 298 298 298 298 298 299 299 298 296 292 288 287 286 286 288 289 287 283 279 277 277 276 275 275 275 272 268 266 263 261 261 260 259 257 254 253 252 252
298 298 298 298 298 297 297 298 298 298 297 298 298 297 296 294 288 285 285 286 287 288 288 286 283 280 278 277 275 274 274 274 272 269 267 263 263 262 261 259 257 255 254 253
299 298 298 297 297 298 300 298 298 299 298 298 298 297 296 294 290 286 286 286 286 286 286 286 284 281 278 278 277 276 274 273 273 272 270 267 266 264 262 259 257 256 255 254
299 298 297 297 296 297 299 298 297 297 299 299 298 297 296 294 292 289 288 287 288 288 287 286 285 283 279 278 278 277 275 273 273 273 271 268 266 264 262 260 258 257 255 254
299 298 298 297 296 298 297 295 294 295 297 299 299 298 297 295 292 291 289 288 287 287 287 287 286 283 281 278 278 277 276 274 273 272 271 269 267 264 263 261 260 258 257 255
297 299 298 297 296 296 295 294 293 294 295 296 297 297 296 295 294 293 291 289 288 287 286 286 286 286 284 281 279 278 277 276 275 273 271 269 267 265 264 263 263 262 259 257
296 297 296 296 296 295 294 293 293 293 294 294 294 294 295 295 295 294 293 291 289 287 286 284 284 285 285 284 282 280 278 277 277 275 272 270 269 268 266 264 264 264 261 258
296 295 295 294 295 293 292 293 294 294 293 292 291 291 292 294 294 294 294 293 291 289 287 285 285 285 286 285 284 281 280 279 278 276 274 272 272 270 267 266 265 264 262 260
295 294 294 294 294 293 292 291 293 293 293 292 291 291 292 293 294 294 294 293 292 290 289 287 286 286 285 285 285 283 281 280 279 277 275 273 272 270 269 267 266 264 262 260
Height
5706 5703 5699 5696 5693 5690 5687 5685 5682 5680 5676 5673 5670 5669 5666 5663 5660 5657 5655 5653 5652 5651 5651 5651 5651 5652 5655 5658 5661 5665 5668 5672 5676 5681 5685 5690 5694 5699 5703 5707 5711 5715 5719 5723
5701 5697 5694 5691 5687 5684 5681 5678 5676 5673 5669 5665 5663 5661 5658 5655 5652 5649 5646 5644 5643 5642 5641 5641 5641 5643 5645 5647 5650 5654 5656 5661 5666 5671 5676 5680 5685 5689 5693 5697 5701 5704 5709 5713
5695 5693 5688 5685 5681 5678 5675 5672 5668 5665 5662 5658 5655 5654 5652 5648 5644 5641 5638 5636 5634 5633 5632 5632 5633 5634 5636 5638 5640 5643 5647 5651 5655 5660 5665 5670 5674 5679 5683 5687 5691 5695 5698 5702
5690 5686 5683 5679 5676 5672 5669 5666 5662 5658 5655 5652 5648 5645 5645 5641 5637 5634 5631 5629 5626 5625 5624 5624 5624 5625 5627 5628 5630 5634 5637 5641 5645 5650 5655 5660 5664 5669 5674 5678 5681 5685 5688 5692
5684 5681 5677 5674 5670 5666 5662 5659 5656 5652 5648 5645 5642 5637 5637 5633 5630 5627 5624 5622 5619 5617 5616 5615 5615 5616 5618 5620 5622 5625 5628 5632 5636 5640 5645 5650 5654 5659 5663 5667 5671 5674 5678 5681
5679 5675 5671 5668 5664 5660 5656 5653 5650 5646 5642 5639 5635 5631 5629 5625 5622 5620 5617 5614 5612 5610 5609 5608 5607 5608 5609 5611 5613 5616 5619 5623 5626 5630 5635 5640 5644 5648 5652 5656 5660 5663 5667 5671
5673 5670 5666 5662 5658 5654 5650 5646 5642 5638 5634 5632 5628 5624 5623 5619 5616 5612 5610 5608 5605 5603 5602 5601 5600 5601 5601 5603 5605 5607 5610 5614 5617 5620 5625 5629 5633 5637 5641 5644 5649 5653 5656 5660
5667 5664 5660 5655 5651 5648 5644 5640 5636 5631 5627 5624 5621 5618 5617 5613 5609 5606 5603 5601 5599 5596 5595 5594 5593 5593 5594 5595 5597 5600 5602 5605 5607 5611 5615 5618 5622 5626 5630 5634 5638 5642 5646 5649
5660 5657 5654 5649 5645 5642 5637 5633 5630 5625 5621 5617 5615 5613 5611 5607 5603 5600 5597 5594 5591 5589 5587 5586 5585 5585 5586 5588 5589 5591 5593 5596 5598 5601 5604 5608 5612 5615 5619 5622 5626 5630 5634 5638
5653 5650 5648 5644 5639 5635 5632 5627 5623 5618 5613 5609 5607 5606 5604 5600 5596 5593 5590 5587 5584 5582 5580 5579 5578 5578 5579 5579 5581 5582 5584 5587 5589 5591 5594 5597 5600 5604 5608 5612 5615 5619 5623 5626
5646 5643 5640 5637 5633 5629 5626 5622 5616 5612 5608 5603 5599 5601 5598 5593 5589 5586 5584 5581 5578 5576 5574 5572 5571 5571 5571 5571 5572 5573 5575 5577 5579 5581 5584 5587 5589 5592 5596 5601 5604 5607 5611 5614
5638 5635 5632 5630 5626 5622 5619 5615 5611 5607 5602 5598 5593 5596 5591 5587 5583 5580 5577 5575 5572 5570 5567 5566 5565 5564 5563 5563 5564 5565 5566 5568 5570 5572 5574 5576 5578 5581 5585 5589 5592 5595 5599 5603
5631 5627 5624 5621 5620 5616 5611 5608 5604 5600 5596 5591 5588 5590 5584 5581 5577 5574 5571 5569 5566 5563 5561 5559 5557 5557 5556 5556 5556 5556 5557 5558 5560 5561 5563 5565 5567 5570 5573 5577 5581 5584 5587 5591
5622 5620 5617 5614 5610 5606 5603 5601 5597 5592 5588 5584 5582 5580 5578 5573 5570 5567 5565 5562 5559 5557 5554 5553 5551 5550 5549 5548 5547 5547 5548 5549 5550 5551 5553 5555 5556 5559 5562 5566 5570 5572 5575 5578
5614 5612 5609 5606 5602 5599 5596 5593 5589 5585 5581 5577 5575 5572 5570 5566 5563 5560 5557 5555 5553 5551 5548 5546 5544 5543 5542 5541 5540 5540 5540 5540 5541 5542 5543 5545 5546 5548 5551 5555 5557 5560 5563 5566
5605 5603 5600 5598 5595 5591 5588 5586 5582 5577 5574 5570 5567 5565 5563 5558 5555 5553 5550 5548 5546 5544 5542 5539 5537 5536 5535 5534 5533 5532 5532 5532 5532 5533 5534 5535 5537 5538 5540 5543 5546 5548 5551 5554
5597 5594 5590 5588 5586 5582 5580 5579 5574 5570 5566 5563 5559 5558 5554 5551 5548 5546 5543 5541 5539 5537 5535 5533 5530 5529 5528 5527 5526 5525 5524 5524 5524 5524 5525 5525 5527 5528 5530 5532 5535 5537 5539 5542
5589 5585 5581 5578 5576 5573 5575 5569 5565 5561 5559 5555 5551 5548 5545 5542 5540 5538 5536 5534 5532 5530 5527 5525 5523 5522 5520 5519 5518 5517 5516 5516 5515 5515 5515 5516 5517 5518 5520 5522 5524 5526 5528 5531
5581 5577 5572 5569 5565 5563 5564 5560 5556 5552 5551 5547 5543 5540 5537 5534 5532 5531 5529 5526 5524 5522 5520 5517 5515 5514 5512 5511 5510 5509 5508 5507 5506 5506 5506 5507 5508 5509 5510 5511 5513 5515 5517 5519
5572 5568 5565 5560 5555 5553 5556 5551 5546 5544 5542 5539 5535 5533 5530 5527 5525 5524 5521 5519 5516 5514 5512 5509 5507 5506 5504 5503 5502 5501 5500 5499 5498 5498 5497 5497 5498 5499 5500 5501 5502 5504 5506 5508
5563 5559 5556 5551 5547 5545 5546 5542 5539 5537 5535 5531 5527 5524 5522 5519 5516 5515 5512 5510 5508 5506 5504 5501 5499 5497 5496 5495 5494 5492 5491 5490 5490 5489 5488 5488 5488 5489 5490 5491 5492 5494 5496 5498
5554 5550 5547 5543 5539 5540 5536 5533 5531 5528 5525 5522 5519 5517 5514 5511 5508 5506 5504 5501 5500 5498 5496 5493 5491 5489 5488 5486 5485 5484 5483 5482 5481 5480 5480 5479 5479 5479 5480 5481 5482 5484 5485 5488
5545 5542 5538 5535 5534 5531 5527 5524 5522 5519 5517 5514 5512 5509 5506 5503 5500 5498 5495 5493 5491 5489 5487 5485 5483 5481 5479 5477 5476 5475 5474 5473 5472 5471 5471 5470 5470 5470 5470 5471 5472 5474 5475 5477
5536 5533 5529 5526 5525 5522 5519 5516 5513 5511 5508 5506 5503 5501 5498 5495 5493 5490 5488 5485 5483 5481 5479 5477 5475 5473 5471 5469 5468 5466 5465 5464 5463 5462 5461 5461 5461 5461 5461 5462 5462 5463 5465 5466
5527 5523 5520 5518 5516 5513 5511 5508 5505 5502 5500 5497 5495 5493 5490 5488 5485 5483 5480 5477 5475 5472 5470 5468 5467 5465 5463 5461 5459 5457 5456 5455 5454 5453 5452 5451 5451 5451 5452 5452 5452 5453 5454 5455
5518 5515 5511 5509 5507 5504 5502 5499 5497 5494 5491 5489 5487 5484 5482 5479 5477 5474 5472 5469 5466 5464 5462 5460 5458 5456 5455 5452 5451 5449 5447 5446 5444 5443 5442 5441 5441 5441 5441 5442 5443 5443 5444 5445